Inverness, United Kingdom

11:23 PM BST on October 16, 2019 (GMT +0100)
Inverness

Weather History for EGPE - September, 2019

Change the Weather History Date:

Monday, September 23, 2019

  Actual Average Record
Temperature  
Mean Temperature 58 °F -  
Max Temperature 68 °F 54 °F 68 °F (2000)
Min Temperature 46 °F 41 °F 30 °F (2012)
Degree Days  
Heating Degree Days 7    
Growing Degree Days 8 (Base 50)    
Moisture  
Dew Point 53 °F    
Average Humidity 87    
Maximum Humidity 100    
Minimum Humidity 64    
Precipitation  
Precipitation 0.00 in - - ()
Sea Level Pressure  
Sea Level Pressure 29.60 in    
Wind  
Wind Speed 4 mph ()    
Max Wind Speed 16 mph    
Max Gust Speed -    
Visibility 5.4 miles    
Events Rain    
Averages and records for this station are not official NWS values.
T = Trace of Precipitation, MM = Missing Value Source: Averaged Metar Reports

Daily Weather History Graph

Daily Weather History Graph

Search for Another Location

Airport or City:

Astronomy

Sep. 23, 2019 Rise Set
Actual Time 7:02 AM BST 7:13 PM BST
Civil Twilight 6:23 AM BST 7:52 PM BST
Nautical Twilight 5:37 AM BST 8:38 PM BST
Astronomical Twilight 4:47 AM BST 9:27 PM BST
Moon No Moon Rise 5:16 PM BST (9/23)
Length of Visible Light 13h 28m
Length of Day
12h 11m
Waning Crescent, 35% of the Moon is Illuminated
Sep 23
Waning Crescent
Sep 28
New
Oct 5
First Quarter
Oct 13
Full
Oct 21
Last Quarter

Hourly Weather History & Observations

Time (BST) Temp. Windchill Dew Point Humidity Pressure Visibility Wind Dir Wind Speed Gust Speed Precip Events Conditions
12:20 AM 57.2 °F - 55.4 °F 94% 29.59 in 6.2 mi NNE 6.9 mph - N/A   Unknown
12:50 AM 57.2 °F - 55.4 °F 94% 29.59 in 6.2 mi Variable 2.3 mph - N/A   Unknown
1:20 AM 57.2 °F - 55.4 °F 94% 29.62 in 6.2 mi Variable 1.2 mph - N/A   Unknown
1:50 AM 55.4 °F - 55.4 °F 100% 29.59 in 6.2 mi ENE 1.2 mph - N/A   Partly Cloudy
2:20 AM 55.4 °F - 55.4 °F 100% 29.59 in 6.2 mi Variable 2.3 mph - N/A   Mostly Cloudy
2:50 AM 55.4 °F - 55.4 °F 100% 29.59 in 6.2 mi Variable 1.2 mph - N/A   Partly Cloudy
3:20 AM 55.4 °F - 55.4 °F 100% 29.59 in 5.6 mi SW 1.2 mph - N/A   Unknown
3:50 AM 55.4 °F - 55.4 °F 100% 29.59 in 5.0 mi SW 1.2 mph - N/A   Unknown
4:20 AM 55.4 °F - 55.4 °F 100% 29.59 in 4.3 mi Variable 2.3 mph - N/A   Mostly Cloudy
4:50 AM 55.4 °F - 55.4 °F 100% 29.59 in 3.7 mi SW 4.6 mph - N/A   Mostly Cloudy
5:20 AM 55.4 °F - 55.4 °F 100% 29.59 in 1.9 mi SSW 5.8 mph - N/A Rain Rain
5:50 AM 55.4 °F - 55.4 °F 100% 29.59 in 2.5 mi WSW 5.8 mph - N/A Rain Rain
6:20 AM 55.4 °F - 55.4 °F 100% 29.59 in 3.1 mi SW 4.6 mph - N/A Rain Rain
6:50 AM 55.4 °F - 55.4 °F 100% 29.59 in 2.8 mi SSW 1.2 mph - N/A   Mostly Cloudy
7:20 AM 55.4 °F - 55.4 °F 100% 29.59 in 2.8 mi SSW 1.2 mph - N/A   Mostly Cloudy
7:50 AM 55.4 °F - 55.4 °F 100% 29.59 in 2.5 mi South 1.2 mph - N/A   Mostly Cloudy
8:20 AM 55.4 °F - 55.4 °F 100% 29.59 in 2.8 mi Calm Calm - N/A   Scattered Clouds
8:50 AM 55.4 °F - 55.4 °F 100% 29.59 in 4.3 mi Calm Calm - N/A   Partly Cloudy
9:20 AM 57.2 °F - 57.2 °F 100% 29.62 in 4.3 mi Variable 1.2 mph - N/A   Partly Cloudy
9:50 AM 57.2 °F - 57.2 °F 100% 29.62 in 5.6 mi SW 3.5 mph - N/A   Scattered Clouds
10:20 AM 57.2 °F - 57.2 °F 100% 29.62 in 5.0 mi Variable 2.3 mph - N/A   Scattered Clouds
10:50 AM 59.0 °F - 59.0 °F 100% 29.62 in 6.2 mi Variable 1.2 mph - N/A   Scattered Clouds
11:20 AM 59.0 °F - 57.2 °F 94% 29.59 in 6.2 mi Variable 3.5 mph - N/A   Partly Cloudy
11:50 AM 62.6 °F - 59.0 °F 88% 29.59 in 6.2 mi Variable 1.2 mph - N/A   Scattered Clouds
12:20 PM 62.6 °F - 59.0 °F 88% 29.59 in 6.2 mi Variable 3.5 mph - N/A   Scattered Clouds
12:50 PM 64.4 °F - 59.0 °F 83% 29.59 in 6.2 mi Variable 2.3 mph - N/A   Scattered Clouds
1:20 PM 66.2 °F - 55.4 °F 68% 29.59 in 6.2 mi South 12.7 mph - N/A   Scattered Clouds
1:50 PM 68.0 °F - 55.4 °F 64% 29.62 in 6.2 mi South 10.4 mph - N/A   Scattered Clouds
2:20 PM 66.2 °F - 53.6 °F 64% 29.59 in 6.2 mi South 13.8 mph - N/A   Scattered Clouds
2:50 PM 66.2 °F - 53.6 °F 64% 29.62 in 6.2 mi South 12.7 mph - N/A   Scattered Clouds
3:20 PM 64.4 °F - 53.6 °F 68% 29.59 in 6.2 mi SSE 13.8 mph - N/A   Scattered Clouds
3:50 PM 66.2 °F - 53.6 °F 64% 29.59 in 6.2 mi SSE 16.1 mph - N/A   Scattered Clouds
4:20 PM 64.4 °F - 53.6 °F 68% 29.59 in 6.2 mi SSE 16.1 mph - N/A   Scattered Clouds
4:50 PM 64.4 °F - 53.6 °F 68% 29.59 in 6.2 mi SSE 12.7 mph - N/A   Scattered Clouds
5:20 PM 62.6 °F - 53.6 °F 72% 29.62 in 6.2 mi South 13.8 mph - N/A   Scattered Clouds
5:50 PM 60.8 °F - 51.8 °F 72% 29.62 in 6.2 mi South 12.7 mph - N/A   Partly Cloudy
6:20 PM 59.0 °F - 51.8 °F 77% 29.62 in 6.2 mi South 5.8 mph - N/A   Partly Cloudy
6:50 PM 57.2 °F - 50.0 °F 77% 29.62 in 6.2 mi SE 5.8 mph - N/A   Partly Cloudy
7:20 PM 55.4 °F - 48.2 °F 77% 29.62 in 6.2 mi SE 4.6 mph - N/A   Partly Cloudy
7:50 PM 53.6 °F - 46.4 °F 77% 29.62 in 6.2 mi SSE 5.8 mph - N/A   Partly Cloudy
8:20 PM 53.6 °F - 48.2 °F 82% 29.62 in 6.2 mi SE 4.6 mph - N/A   Partly Cloudy
8:50 PM 53.6 °F - 48.2 °F 82% 29.62 in 6.2 mi ESE 6.9 mph - N/A   Partly Cloudy
9:20 PM 53.6 °F - 46.4 °F 77% 29.62 in 6.2 mi Variable 3.5 mph - N/A   Partly Cloudy
9:50 PM 51.8 °F - 46.4 °F 82% 29.62 in 6.2 mi NNE 4.6 mph - N/A   Partly Cloudy
10:20 PM 48.2 °F - 44.6 °F 87% 29.62 in 6.2 mi Variable 3.5 mph - N/A   Unknown
10:50 PM 51.8 °F - 46.4 °F 82% 29.62 in 6.2 mi ESE 5.8 mph - N/A   Unknown
11:20 PM 48.2 °F - 44.6 °F 87% 29.59 in 6.2 mi Variable 3.5 mph - N/A   Unknown
11:50 PM 46.4 °F 44.3 °F 44.6 °F 93% 29.59 in 6.2 mi NE 4.6 mph - N/A   Unknown